[[{"header":{"parameterUnit":"m.s-1","parameterCategory":1,"la1":30.2991,"la2":30.254,"lo1":-89.0895,"lo2":-89.0444,"dy":0.0017,"dx":0.0017,"nx":28,"ny":28,"refTime":"2025-02-04T03:00:00:Z","depth":0,"parameterNumber":2,"parameterNumberName":"U-component_of_WINDS"},"data":[0,0,0,0,0,0,0,0,0,0,0,0,0,0,0,0,0,0,0,0,0,0,0,0,0,0,0,0,0,0,0,0,0,0,0,0,0,0,0,0,0,0,0,0,0,0,0,0,0,0,0,0,0,0,0,0,0,0,-0.3815,-0.3815,0,-0.3812,-0.3812,-0.3812,-0.3786,-0.3785,-0.3785,-0.3784,-0.3783,-0.3783,-0.3784,0,0,0,0,0,0,0,0,0,0,0,0,0,-0.38,-0.38,-0.3815,-0.3815,-0.3815,-0.3812,-0.3812,-0.3812,-0.3786,-0.3785,-0.3785,-0.3784,-0.3782,-0.3783,-0.3784,0,0,0,0,0,0,0,0,0,0,0,0,0,-0.3803,-0.3801,-0.3815,-0.3802,-0.38,-0.3812,-0.3812,-0.3812,-0.3786,-0.3785,-0.3784,-0.3783,-0.3782,-0.3783,-0.3784,-0.3809,0,0,-0.3787,-0.3787,0,0,0,0,0,0,0,0,-0.3803,-0.3803,-0.3804,-0.3803,-0.3801,-0.3798,-0.3806,-0.3811,-0.3787,-0.3792,-0.3784,-0.3783,-0.3789,-0.3789,-0.3791,-0.3809,-0.3809,-0.3787,-0.3787,-0.3787,-0.3788,0,0,0,0,0,0,0,-0.3803,-0.3803,-0.3814,-0.3804,-0.3802,-0.3796,-0.3796,-0.3807,-0.3796,-0.3791,-0.3789,-0.3789,-0.3788,-0.379,-0.379,-0.3809,-0.3787,-0.3787,-0.3788,-0.3788,-0.3847,-0.3848,0,0,0,0,0,0,-0.3804,-0.3803,-0.3814,-0.3814,-0.38,-0.3797,-0.3797,-0.38,-0.3796,-0.3794,-0.379,-0.3788,-0.3789,-0.3789,-0.379,-0.3819,-0.3787,-0.3788,-0.3789,-0.3846,-0.3847,-0.3848,0,0,0,0,0,0,-0.3804,-0.3805,-0.3814,-0.3808,-0.3809,-0.3799,-0.3803,-0.3801,-0.3803,-0.3795,-0.3793,-0.3794,-0.3788,-0.3789,-0.3804,-0.3818,-0.3789,-0.3789,-0.3845,-0.3846,-0.3848,-0.3877,0,0,0,0,0,0,-0.3803,-0.3805,-0.3814,-0.3809,-0.3809,-0.3828,-0.3804,-0.3801,-0.3804,-0.3801,-0.3798,-0.3796,-0.3787,-0.3803,-0.3805,-0.3819,-0.379,-0.3843,-0.3845,-0.3847,-0.3874,-0.3879,-0.3883,0,0,0,0,0,-0.3803,-0.3823,-0.3815,-0.3816,-0.382,-0.3829,-0.3829,-0.3818,-0.3805,-0.3814,-0.3809,-0.3797,-0.3817,-0.3805,-0.3807,-0.3821,-0.3842,-0.3845,-0.3847,-0.3872,-0.3878,-0.3883,0,0,0,0,0,0,-0.3831,-0.3822,-0.3813,-0.3831,-0.3831,-0.3824,-0.3835,-0.3824,-0.3828,-0.3825,-0.3812,-0.3811,-0.3829,-0.3827,-0.3814,-0.3845,-0.3827,-0.383,-0.3846,-0.3851,-0.3855,-0.3855,-0.3791,0,0,0,0,0,-0.3839,-0.3846,-0.3838,-0.3855,-0.3855,-0.3846,-0.3849,-0.384,-0.384,-0.3839,-0.3835,-0.3836,-0.3842,-0.3847,-0.3852,-0.3874,-0.3873,-0.3885,-0.3889,-0.3893,-0.3895,-0.3907,-0.3912,-0.3856,-0.3856,-0.3856,0,0,-0.3856,-0.3852,-0.3858,-0.3861,-0.3859,-0.3867,-0.3846,-0.3855,-0.3861,-0.3841,-0.3855,-0.3852,-0.3852,-0.387,-0.3878,-0.3869,-0.3911,-0.3896,-0.3899,-0.3899,-0.391,-0.3915,-0.392,-0.3858,-0.3857,-0.3857,0,0,-0.3892,-0.3889,-0.3903,-0.3902,-0.39,-0.3893,-0.3897,-0.3892,-0.3889,-0.3903,-0.3888,-0.3895,-0.3907,-0.3907,-0.3908,-0.3944,-0.3932,-0.3946,-0.3969,-0.398,-0.3984,-0.3988,-0.4001,-0.4006,-0.3949,-0.3949,-0.3949,0,-0.3913,-0.3924,-0.3912,-0.3922,-0.3924,-0.3906,-0.392,-0.392,-0.392,-0.3922,-0.3912,-0.3926,-0.3924,-0.3942,-0.3951,-0.3953,-0.3957,-0.3946,-0.3985,-0.3988,-0.3992,-0.4004,-0.4009,-0.3951,-0.3951,-0.395,-0.395,0,-0.3951,-0.3959,-0.397,-0.397,-0.3974,-0.3986,-0.3976,-0.3981,-0.3972,-0.3967,-0.3981,-0.3979,-0.3983,-0.3987,-0.3979,-0.4005,-0.3999,-0.3987,-0.3969,-0.3999,-0.401,-0.4014,-0.3953,-0.3953,-0.3952,-0.3952,0,0,-0.4003,-0.3996,-0.4,-0.4,-0.3997,-0.4003,-0.4015,-0.4019,-0.4023,-0.4025,-0.4034,-0.4044,-0.4033,-0.4035,-0.4027,-0.4037,-0.4066,-0.4024,-0.4024,-0.4031,-0.4093,-0.4102,-0.4108,-0.4058,-0.4059,-0.4059,-0.4093,0,-0.4037,-0.4055,-0.4045,-0.4065,-0.4073,-0.4056,-0.4066,-0.4065,-0.4061,-0.4067,-0.4062,-0.4069,-0.4054,-0.4055,-0.4065,-0.406,-0.4078,-0.4058,-0.4067,-0.4068,-0.4067,-0.4113,-0.4122,-0.4154,-0.4098,-0.4098,-0.4099,0,-0.4078,-0.408,-0.4102,-0.4097,-0.41,-0.4109,-0.4112,-0.4118,-0.4117,-0.4113,-0.4115,-0.4105,-0.4117,-0.4099,-0.4115,-0.4102,-0.4105,-0.4103,-0.4104,-0.4105,-0.4085,-0.4114,-0.4164,-0.4169,-0.4105,-0.4105,-0.4104,0,-0.4114,-0.4122,-0.4136,-0.4136,-0.4131,-0.4138,-0.4137,-0.4135,-0.4138,-0.4141,-0.4143,-0.4147,-0.415,-0.4154,-0.4145,-0.4133,-0.4162,-0.4144,-0.416,-0.416,-0.4166,-0.4166,-0.4217,-0.4169,-0.4169,-0.4169,-0.4169,0,-0.4152,-0.4166,-0.4152,-0.416,-0.4175,-0.4163,-0.4178,-0.4175,-0.4173,-0.4181,-0.4167,-0.4175,-0.4163,-0.417,-0.4164,-0.4178,-0.418,-0.4177,-0.4175,-0.4178,-0.4178,-0.418,-0.4177,-0.417,-0.417,-0.417,-0.417,0,-0.4194,-0.4185,-0.4199,-0.4193,-0.4192,-0.4203,-0.4198,-0.4206,-0.4201,-0.4211,-0.4213,-0.4205,-0.4212,-0.4204,-0.4211,-0.4206,-0.4226,-0.4221,-0.4226,-0.4224,-0.424,-0.4239,-0.4294,-0.43,-0.4249,-0.4249,-0.425,0,-0.4219,-0.4229,-0.4224,-0.4228,-0.4227,-0.4234,-0.4236,-0.4225,-0.4229,-0.4229,-0.4237,-0.4243,-0.4247,-0.426,-0.4255,-0.426,-0.4255,-0.4274,-0.4256,-0.4259,-0.4255,-0.4255,-0.4255,-0.4278,-0.4278,-0.4279,-0.4279,0,-0.4264,-0.4259,-0.4263,-0.4266,-0.427,-0.4272,-0.4273,-0.4278,-0.4266,-0.4271,-0.4278,-0.4281,-0.4288,-0.4294,-0.4298,-0.4297,-0.4287,-0.4285,-0.4289,-0.4292,-0.4294,-0.4293,-0.4235,-0.4284,-0.4283,-0.4283,-0.4283,-0.4283,-0.4298,-0.4306,-0.4303,-0.4309,-0.4308,-0.431,-0.4317,-0.4312,-0.4318,-0.4322,-0.4315,-0.4324,-0.4323,-0.4327,-0.4328,-0.4335,-0.4327,-0.4333,-0.4334,-0.4335,-0.4338,-0.4294,-0.4336,-0.4336,-0.4335,-0.4335,-0.4335,0,-0.4342,-0.4339,-0.4345,-0.4346,-0.4351,-0.434,-0.434,-0.4345,-0.4353,-0.4353,-0.4357,-0.4365,-0.4372,-0.4367,-0.4372,-0.4379,-0.4374,-0.4381,-0.438,-0.438,-0.4345,-0.4341,-0.4385,-0.4385,-0.4385,-0.4385,-0.4385,-0.4385,-0.4365,-0.4378,-0.4373,-0.4386,-0.4383,-0.4391,-0.4393,-0.4394,-0.4394,-0.4403,-0.4408,-0.4405,-0.4404,-0.4409,-0.4414,-0.4413,-0.4415,-0.4423,-0.442,-0.4387,-0.4382,-0.4378,-0.4374,-0.4424,-0.4424,-0.4455,-0.4455,-0.4456]},{"header":{"parameterUnit":"m.s-1","parameterCategory":1,"la1":30.2991,"la2":30.254,"lo1":-89.0895,"lo2":-89.0444,"dy":0.0017,"dx":0.0017,"nx":28,"ny":28,"refTime":"2025-02-04T03:00:00:Z","depth":0,"parameterNumber":3,"parameterNumberName":"V-component_of_WINDS"},"data":[0,0,0,0,0,0,0,0,0,0,0,0,0,0,0,0,0,0,0,0,0,0,0,0,0,0,0,0,0,0,0,0,0,0,0,0,0,0,0,0,0,0,0,0,0,0,0,0,0,0,0,0,0,0,0,0,0,0,1.3208,1.3209,0,1.3285,1.3285,1.3286,1.3296,1.3296,1.3295,1.3294,1.3372,1.3375,1.3377,0,0,0,0,0,0,0,0,0,0,0,0,0,1.3069,1.3071,1.3208,1.3209,1.321,1.3284,1.3285,1.3287,1.3296,1.3296,1.3295,1.3294,1.3371,1.3374,1.3378,0,0,0,0,0,0,0,0,0,0,0,0,0,1.3135,1.3072,1.3208,1.3224,1.3226,1.3284,1.3286,1.3287,1.3297,1.3296,1.3294,1.3293,1.337,1.3374,1.3378,1.3426,0,0,1.3391,1.3393,0,0,0,0,0,0,0,0,1.3132,1.3141,1.322,1.3223,1.3225,1.328,1.3265,1.3333,1.3297,1.327,1.3294,1.3293,1.3342,1.3348,1.3365,1.3429,1.3432,1.3391,1.3394,1.3395,1.3397,0,0,0,0,0,0,0,1.3127,1.3137,1.3238,1.3221,1.3224,1.3227,1.3235,1.3278,1.3311,1.3272,1.3273,1.3282,1.3343,1.3361,1.3367,1.3434,1.3391,1.3395,1.3397,1.3399,1.354,1.3541,0,0,0,0,0,0,1.312,1.3133,1.3236,1.324,1.3175,1.323,1.3239,1.3263,1.3311,1.3317,1.3283,1.3282,1.3355,1.3362,1.337,1.3429,1.3395,1.3399,1.3402,1.3538,1.354,1.3541,0,0,0,0,0,0,1.3117,1.3129,1.3233,1.3187,1.3201,1.3234,1.326,1.3265,1.3284,1.3319,1.3325,1.3295,1.3354,1.3364,1.3412,1.3431,1.3401,1.3405,1.3537,1.3539,1.3541,1.3546,0,0,0,0,0,0,1.3113,1.3127,1.3146,1.3188,1.3203,1.3273,1.3262,1.3268,1.3291,1.3291,1.3332,1.3338,1.3354,1.3405,1.3416,1.3436,1.3408,1.3535,1.3538,1.354,1.3544,1.3548,1.3551,0,0,0,0,0,1.3108,1.3145,1.3147,1.3159,1.3227,1.3275,1.3283,1.3302,1.3292,1.3311,1.3334,1.3337,1.3427,1.341,1.3422,1.3444,1.3534,1.3537,1.354,1.3543,1.3547,1.3551,0,0,0,0,0,0,1.3105,1.315,1.3154,1.3205,1.3236,1.3276,1.3301,1.3306,1.3339,1.3338,1.3359,1.3368,1.3414,1.3434,1.3414,1.3492,1.348,1.3485,1.3478,1.3482,1.3486,1.348,1.3411,0,0,0,0,0,1.311,1.3145,1.3183,1.3225,1.324,1.3268,1.3289,1.33,1.3333,1.3346,1.3372,1.3403,1.3438,1.3461,1.3496,1.3547,1.3556,1.3568,1.3571,1.3574,1.3578,1.3606,1.3612,1.3551,1.3551,1.3551,0,0,1.3122,1.3151,1.3172,1.3225,1.325,1.3285,1.3278,1.3316,1.3343,1.3351,1.3398,1.3418,1.3454,1.3503,1.3526,1.3521,1.3597,1.3577,1.3579,1.3582,1.361,1.3615,1.3621,1.3553,1.3552,1.3552,0,0,1.3161,1.3187,1.3224,1.3249,1.3287,1.3305,1.3314,1.3354,1.3367,1.3414,1.3421,1.3453,1.3513,1.3539,1.356,1.3607,1.3611,1.3618,1.3636,1.3663,1.3668,1.3672,1.3689,1.3695,1.3622,1.3622,1.3622,0,1.3171,1.3225,1.3243,1.3281,1.3303,1.3313,1.3351,1.3374,1.3421,1.3437,1.343,1.3506,1.3531,1.3586,1.3598,1.3614,1.3625,1.3614,1.3665,1.367,1.3674,1.3691,1.3697,1.3623,1.3623,1.3623,1.3623,0,1.3234,1.3272,1.3297,1.3343,1.3369,1.3406,1.343,1.3453,1.3462,1.3481,1.3528,1.3558,1.3599,1.3612,1.3621,1.3669,1.3664,1.3661,1.3649,1.368,1.3696,1.3703,1.3624,1.3623,1.3623,1.3623,0,0,1.3275,1.333,1.3339,1.3359,1.3401,1.343,1.3468,1.3508,1.3528,1.356,1.3592,1.3642,1.364,1.3663,1.3675,1.3699,1.3734,1.3693,1.3694,1.37,1.3788,1.3791,1.3798,1.3737,1.3738,1.3739,1.3785,0,1.332,1.3387,1.3404,1.3462,1.3496,1.3505,1.3538,1.3567,1.3585,1.3616,1.3636,1.3671,1.3665,1.3679,1.3703,1.3725,1.3752,1.3722,1.3767,1.3768,1.3758,1.3806,1.3809,1.3851,1.3792,1.3793,1.3793,0,1.3381,1.3414,1.3475,1.3512,1.3527,1.3556,1.3594,1.3624,1.3657,1.3668,1.3694,1.3703,1.3742,1.3727,1.3781,1.376,1.3779,1.3792,1.3794,1.38,1.3783,1.3813,1.3865,1.3872,1.3803,1.3803,1.3802,0,1.3405,1.3465,1.3509,1.3526,1.357,1.3591,1.361,1.3642,1.3664,1.3697,1.3712,1.3748,1.3769,1.3796,1.3815,1.3803,1.3867,1.3854,1.3878,1.3877,1.3892,1.3891,1.3948,1.3903,1.3903,1.3903,1.3902,0,1.3453,1.349,1.352,1.3547,1.3589,1.3608,1.3648,1.3668,1.3696,1.3726,1.3736,1.3764,1.3787,1.3818,1.3833,1.3875,1.3884,1.3894,1.3898,1.3894,1.3893,1.3907,1.3905,1.3904,1.3904,1.3904,1.3903,0,1.3487,1.3509,1.3558,1.3595,1.3606,1.3635,1.3667,1.3693,1.3711,1.375,1.376,1.3788,1.3825,1.3846,1.3893,1.3903,1.395,1.3952,1.394,1.3941,1.3964,1.3961,1.4033,1.4043,1.3991,1.3991,1.3992,0,1.3517,1.3546,1.3586,1.3608,1.3627,1.3662,1.3685,1.3704,1.3727,1.3766,1.3788,1.3826,1.3858,1.3917,1.3942,1.3978,1.3981,1.4003,1.3986,1.3981,1.3981,1.398,1.3983,1.4006,1.4007,1.4007,1.4008,0,1.3568,1.3577,1.361,1.3646,1.3674,1.3704,1.3733,1.375,1.3774,1.38,1.3838,1.3863,1.3911,1.3948,1.3986,1.4006,1.4011,1.4012,1.402,1.4017,1.4008,1.4014,1.3948,1.4011,1.4011,1.401,1.401,1.401,1.3601,1.3627,1.3659,1.3696,1.372,1.3747,1.3773,1.3794,1.3827,1.3868,1.3876,1.3917,1.3948,1.4,1.402,1.4052,1.4048,1.4058,1.4061,1.4064,1.4065,1.4002,1.4059,1.4058,1.4058,1.4058,1.4058,0,1.3652,1.3673,1.3707,1.3747,1.3776,1.3778,1.381,1.3834,1.387,1.3898,1.3929,1.3973,1.4009,1.4036,1.4073,1.4093,1.4097,1.4102,1.4102,1.4106,1.4066,1.4056,1.4099,1.4099,1.4099,1.4099,1.4099,1.4099,1.3683,1.3726,1.3739,1.3794,1.3815,1.3855,1.3873,1.3898,1.3921,1.397,1.4,1.4017,1.4045,1.4084,1.4118,1.4124,1.4138,1.4143,1.4151,1.4113,1.4109,1.4105,1.4095,1.4146,1.4146,1.4188,1.4188,1.4189]}]]